x

8413320 - Bar Harbor, Me (atgm1) Weather Station

10:54 - Thu 28th May 2015 All times are EDT. -4 hours from GMT.

  • Wind
    7mph, 9mph gusts
  • Sea Temp 47°f
  • Luft Temp 58°f
  • Sea Pressure 1018.5mb
  • 8413320 - Bar Harbor, Me
  • 8413320 - Bar Harbor, Me

More Historic Weather Station data

Upgrade to MSW Pro to gain access to the past 30 days of data for over 8000 Wavebouys and Weather Stations around the globe.

Join Pro

Comparision Forecast

View Surf forecast
   
Do 05/28 10:54 7 9 mph 1018.5mb 47f 58f
10:48 6 7 mph 1018.4mb 47f 61f
10:42 3 7 mph 1018.3mb 47f 59f
10:36 3 8 mph 1018.2mb 47f 59f
10:30 6 9 mph 1018.2mb 47f 58f
10:24 6 7 mph 1018.4mb 47f 56f
10:18 3 6 mph 1018.6mb 47f 57f
10:12 5 7 mph 1018.6mb 47f 56f
10:06 5 7 mph 1018.6mb 47f 55f
10:00 5 9 mph 1018.6mb 47f 55f
9:54 7 8 mph 1018.6mb 47f 56f
9:48 5 7 mph 1018.6mb 47f 55f
9:42 5 7 mph 1018.6mb 47f 55f
9:36 6 7 mph 1018.7mb 46f 55f
9:30 5 6 mph 1018.7mb 46f 54f
9:24 7 8 mph 1018.8mb 46f 54f
9:18 9
mph
1018.7mb 46f 55f
9:12 9 10 mph 1018.8mb 46f 54f
9:06 8 9 mph 1018.9mb 46f 55f
9:00 8 9 mph 1018.9mb 46f 56f
8:54 6 9 mph 1018.9mb 46f 54f
8:48 7 8 mph 1018.9mb 46f 55f
8:42 3 8 mph 1018.8mb 46f 54f
8:36 6 9 mph 1018.8mb 46f 55f
8:30 7 9 mph 1018.8mb 46f 54f
8:24 6
mph
1018.7mb 46f 54f
8:18 3 6 mph 1018.6mb 46f 54f
8:12 6 8 mph 1018.5mb 46f 54f
8:06 7 9 mph 1018.4mb 46f 55f
8:00 7 10 mph 1018.4mb 46f 54f
7:54 6 11 mph 1018.4mb 46f 56f
7:48 3 8 mph 1018.3mb 46f 60f
7:42 6 10 mph 1018.3mb 45f 61f
7:36 2 9 mph 1018.3mb 46f 62f
7:30 8 9 mph 1018.3mb 45f 63f
7:24 7 9 mph 1018.3mb 45f 63f
7:18 6 7 mph 1018.1mb 45f 62f
7:12  -  8 mph 1018.2mb 45f 59f
7:06 7 8 mph 1018.1mb 45f 60f
7:00 2 3 mph 1018mb 45f 64f
6:54 3 8 mph 1017.8mb 45f 64f
6:48 7 11 mph 1017.8mb 45f 63f
6:42 6 10 mph 1017.9mb 45f 63f
6:36 6 9 mph 1017.9mb 45f 62f
6:30 2 6 mph 1017.8mb - 64f
6:24 6 11 mph 1017.8mb - 64f
6:18 6 9 mph 1017.8mb 45f 64f
6:12 6 8 mph 1018mb 44f 64f
6:06 6 13 mph 1018mb 44f 64f
6:00 6 16 mph 1018mb 44f 64f
5:54 8 17 mph 1017.8mb 44f 64f
5:48 11 17 mph 1017.6mb 44f 64f
5:42 11 20 mph 1017.6mb 45f 64f
5:36 16 22 mph 1017.4mb 44f 64f
5:30 14 23 mph 1017.3mb 44f 64f
5:24 14 21 mph 1017.2mb 44f 64f
5:18 16 22 mph 1017.2mb 44f 64f
5:12 15 22 mph 1017.1mb 45f 63f
5:06 16 24 mph 1017.1mb 45f 63f
5:00 16 28 mph 1017mb 45f 63f
4:54 18 26 mph 1017mb 45f 63f
4:48 16 26 mph 1017.1mb 45f 63f
4:42 15 26 mph 1017mb 45f 63f
4:36 18 29 mph 1016.8mb 45f 63f
4:30 14 23 mph 1016.7mb 45f 64f
4:24 14 20 mph 1016.7mb 45f 64f
4:18 14 21 mph 1016.8mb 45f 64f
4:12 14 21 mph 1016.7mb 45f 64f
4:06 15 22 mph 1016.7mb 45f 64f
4:00 15 21 mph 1016.7mb 45f 64f
3:54 16 22 mph 1016.7mb 45f 64f
3:48 13 22 mph 1016.7mb 45f 64f
3:42 15 30 mph 1016.8mb 45f 65f
3:36 16 26 mph 1016.5mb 45f 65f
3:30 14 20 mph 1016.2mb 45f 66f
3:24 15 25 mph 1016.2mb 45f 66f
3:18 16 25 mph - 45f 65f
3:12 14 34 mph - 45f 64f
3:06 21 31 mph - 45f 65f
3:00 17 29 mph 1016.6mb 45f 64f
2:54 21 28 mph 1016.6mb 45f 64f
2:48 20 30 mph 1016.6mb 45f 65f
2:42 17 25 mph 1016.5mb 45f 65f
2:36 16 26 mph 1016.6mb 45f 65f
2:30 15 28 mph 1016.5mb 45f 64f
2:24 17 28 mph 1016.6mb 45f 64f
2:18 22 29 mph 1016.6mb 45f 64f
2:12 18 31 mph 1016.6mb 45f 64f
2:06 17 29 mph 1016.5mb 45f 64f
2:00 18 30 mph 1016.5mb 45f 64f
1:54 17 24 mph 1016.5mb 45f 65f
1:48 20 30 mph 1016.4mb 45f 65f
1:42 18 25 mph 1016.4mb 45f 65f
1:36 16 31 mph 1016.4mb 45f 65f
1:30 18 28 mph 1016.4mb 45f 65f
1:24 18 30 mph 1016.5mb 45f 65f
1:18 17 26 mph 1016.4mb 45f 66f
1:12 15 24 mph 1016.4mb 45f 66f
1:06 20 29 mph 1016.4mb 45f 66f
1:00 16 29 mph 1016.4mb 45f 67f
12:54 15 22 mph 1016.4mb 45f 67f
12:48 16 26 mph 1016.4mb 45f 66f
12:42 18 25 mph 1016.3mb 45f 66f
12:36 16 25 mph 1016.4mb 45f 66f
12:30 17 24 mph 1016.6mb 45f 66f
12:24 16 22 mph 1016.6mb 45f 66f
12:18 20 25 mph 1016.6mb 45f 66f
12:12 18 32 mph 1016.6mb 45f 66f
12:06 21 30 mph 1016.8mb 45f 66f
12:00 20 29 mph 1016.9mb 45f 66f
Mi 05/27 11:54 21 32 mph 1016.8mb 45f 67f
11:48 18 30 mph 1016.9mb 45f 67f
11:42 20 26 mph 1017mb 45f 67f
11:36 17 26 mph 1017.2mb 45f 66f
11:30 20 28 mph 1017.1mb 45f 67f
11:24 14 28 mph 1017.2mb 45f 67f
11:18 20 28 mph 1017.1mb 45f 67f
11:12 14 24 mph 1017.2mb 45f 67f
11:06 18 34 mph 1017.1mb 46f 67f
11:00 14 28 mph 1017.1mb 46f 67f
10:54 14 29 mph 1017.1mb 46f 67f
10:48 15 26 mph 1017.2mb 46f 67f
10:42 18 30 mph 1017.2mb 46f 67f
10:36 16 33 mph 1017.2mb 46f 67f
10:30 15 23 mph 1017.2mb 46f 67f
10:24 14 22 mph 1017.2mb 46f 66f
10:18 17 26 mph 1017.3mb 46f 66f
10:12 15 26 mph 1017.3mb 46f 65f
10:06 17 28 mph 1017.4mb 46f 65f
10:00 15 26 mph 1017.5mb 46f 64f
9:54 17 25 mph 1017.7mb 46f 64f
9:48 16 28 mph 1017.7mb 46f 64f
9:42 15 29 mph 1017.6mb 46f 64f
9:36 21 34 mph 1017.5mb 46f 65f
9:30 18 29 mph 1017.5mb 46f 65f
9:24 21 34 mph 1017.2mb 46f 65f
9:18 18 30 mph 1017.3mb 46f 65f
9:12 17 29 mph 1017.4mb 46f 65f
9:06 15 28 mph 1017.4mb 46f 65f
9:00 17 25 mph 1017.4mb 45f 65f
8:54 16 29 mph 1017.4mb 45f 65f
8:48 15 26 mph 1017.5mb 45f 64f
8:42 17 26 mph 1017.4mb 45f 64f
8:36 20 28 mph 1017.3mb 46f 64f
8:30 18 29 mph 1017.1mb 46f 64f
8:24 23 31 mph 1017.1mb 46f 64f
8:18 17 37 mph 1017.1mb 46f 64f
8:12 20 31 mph 1017.1mb 46f 64f
8:06 22 31 mph 1017.1mb 46f 64f
8:00 22 32 mph 1017.2mb 46f 64f
7:54 18 25 mph 1017.2mb 46f 64f
7:48 15 29 mph 1016.9mb 46f 64f
7:42 16 25 mph 1016.7mb 46f 63f
7:36 18 28 mph 1016.7mb 45f 63f
7:30 13 21 mph 1016.8mb 45f 63f
7:24 14 25 mph 1016.7mb 46f 63f
7:18 18 25 mph 1016.8mb 46f 63f
7:12 16 29 mph 1016.9mb 46f 63f
7:06 16 31 mph 1016.7mb 47f 64f
7:00 18 33 mph 1016.5mb 47f 64f
6:00 16 25 mph 1016.5mb 48f 65f
5:30 11 21 mph 1016.8mb 48f 67f
5:24 10 21 mph 1016.8mb 48f 66f
5:18 16 24 mph 1016.9mb 48f 66f
5:12 9 22 mph 1017mb 48f 67f
5:06 7 14 mph 1017.1mb 48f 67f
5:00 6 14 mph 1017.3mb 48f 65f
4:54 9 20 mph 1017.2mb 47f 67f
4:48 8 15 mph 1017.3mb 47f 64f
4:42 5 13 mph 1017.5mb 47f 66f
4:36 6 18 mph 1017.5mb 47f 64f
4:30 10 16 mph 1017.5mb 47f 67f
4:24 3 11 mph 1017.7mb 47f 63f
4:18 5 9 mph 1017.7mb 48f 64f
4:12 6 14 mph 1017.6mb 48f 65f
4:06 10 16 mph 1017.7mb 47f 62f
4:00 6 14 mph 1017.7mb 47f 62f
3:54 7 11 mph 1017.7mb 47f 63f
3:48 6 13 mph 1017.7mb 48f 61f
3:42 9 14 mph 1017.8mb 48f 60f
3:36 10 21 mph 1017.9mb 48f 59f
3:30 3 10 mph 1017.9mb 48f 65f
3:24 5 11 mph 1018.1mb 48f 64f
3:18 6 9 mph 1018.2mb 48f 63f
3:12 7 10 mph 1018.5mb 49f 62f
3:06 3 14 mph 1018.7mb 49f 63f
3:00 7 16 mph 1018.6mb 49f 67f
2:54 6 10 mph 1018.8mb 49f 63f
2:48 7 20 mph 1018.9mb 49f 68f
2:42 14 23 mph 1018.8mb 49f 69f
2:36 10 18 mph 1018.8mb 49f 71f
2:30 11 22 mph 1018.7mb 50f 71f
2:24 13 22 mph 1018.7mb 49f 71f
2:18 13 22 mph 1018.8mb 49f 71f
2:12 13 22 mph 1018.8mb 49f 72f
2:06 10 23 mph 1018.9mb 49f 72f
2:00 13 23 mph 1019mb 49f 71f
1:54 16 22 mph 1019.1mb 49f 71f
1:48 15 21 mph 1019.1mb 48f 71f
1:42 15 23 mph 1019.1mb 49f 72f
1:36 14 22 mph 1019.1mb 49f 71f
1:30 14 22 mph 1019.1mb 49f 71f
1:24 14 22 mph 1019.3mb 49f 72f
1:18 13 20 mph 1019.2mb 49f 72f
1:12 11 20 mph 1019.1mb 49f 73f
1:06 15 24 mph 1019mb 49f 72f
1:00 17 23 mph 1019.1mb 49f 72f
12:54 14 22 mph 1019.1mb 49f 73f
12:48 11 18 mph 1019mb 49f 73f
12:42 7 16 mph 1019.1mb 49f 70f
12:36 1 3 mph 1019.2mb 49f 62f
12:30 6 8 mph 1019.1mb 48f 57f
12:24 3 6 mph 1019.2mb 48f 59f
12:18 6 9 mph 1019.2mb 48f 58f
12:12 8 14 mph 1019.3mb 48f 56f
12:06 5 9 mph 1019.3mb 48f 64f
12:00 5 8 mph 1019.4mb 48f 57f
11:54 3 5 mph 1019.5mb 48f 56f
11:48 2 3 mph 1019.5mb 48f 56f
11:42 3 8 mph 1019.7mb 48f 53f
11:36 5 8 mph 1019.6mb 48f 53f
11:30 7 8 mph 1019.6mb 48f 52f
11:24 5 7 mph 1019.6mb 48f 52f
11:18 5 7 mph 1019.7mb 48f 53f
11:12 8 9 mph 1019.7mb 48f 54f
11:06 6 7 mph 1019.6mb 48f 54f
11:00 6 7 mph 1019.6mb 48f 55f
10:54 6 8 mph 1019.7mb 48f 54f
10:48 6 7 mph 1019.8mb 48f 55f
10:42 6
mph
1019.9mb 48f 55f
10:36 3 5 mph 1020mb 48f 54f
10:30 5 6 mph 1020mb 48f 53f
10:24 3 6 mph 1019.9mb 48f 53f
10:18 3 5 mph 1019.8mb 48f 53f
10:12 3 6 mph 1019.9mb 48f 53f
10:06 5 6 mph 1019.9mb 48f 54f
10:00 1 2 mph 1019.9mb 48f 55f
9:54 1 2 mph 1019.9mb 48f 55f
9:48  -  2 mph 1020mb 48f 55f
9:42  -  1 mph 1020mb 48f 54f
9:36 1 2 mph 1019.9mb 48f 54f
9:30  -  2 mph 1019.9mb 48f 55f
9:24 2 3 mph 1019.9mb 48f 54f
9:18 3 7 mph 1019.9mb 48f 54f
9:12 5 7 mph 1020mb 48f 53f
9:06 5 6 mph 1020mb 48f 53f
9:00 5 6 mph 1020mb 48f 53f
8:54 5 6 mph 1020mb 48f 53f
8:48  -  1 mph 1019.9mb 48f 52f
8:42 1 2 mph 1019.9mb 48f 52f
8:36  -  3 mph 1020mb 48f 52f
8:30 2 5 mph 1020mb 48f 52f
8:24 2 5 mph 1020mb 48f 52f
8:18 1 2 mph 1019.9mb 48f 54f
8:12 2 3 mph 1019.9mb 48f 52f
8:06 1 2 mph 1019.8mb 48f 52f
8:00 2 5 mph 1019.9mb 48f 52f
7:54 5
mph
1020mb 48f 52f
7:48 3
mph
1019.9mb 48f 52f
7:42 1 3 mph 1019.9mb 48f 53f
7:36 3
mph
1019.9mb 48f 52f
7:30 2 3 mph 1019.8mb 48f 52f
7:24 3
mph
1019.8mb 48f 51f
7:18 3
mph
1019.8mb 48f 52f
7:12 1 3 mph 1019.7mb 48f 54f
7:06 2 3 mph 1019.5mb 48f 53f
7:00 3
mph
1019.4mb 48f 53f
6:54 3 5 mph 1019.5mb 48f 52f
6:48 5 6 mph 1019.4mb 48f 52f
6:42  -  5 mph 1019.4mb 48f 53f
6:36 5
mph
1019.3mb 47f 52f
6:30 2 5 mph 1019.4mb 47f 52f
6:24 5 6 mph 1019.4mb 47f 52f
6:18  -  5 mph 1019.3mb 47f 52f
6:12 2 3 mph 1019.2mb 47f 52f
6:06  -  5 mph 1019.2mb 47f 52f
6:00 1 3 mph 1019.2mb 47f 52f
5:54  -  2 mph 1019.2mb 47f 52f
5:48  -  3 mph 1019.3mb 47f 52f
5:42 2 3 mph - - -
5:36 1 2 mph - - -
5:30 3 5 mph 1019.1mb 47f 53f
5:24  -  3 mph 1019mb 47f 52f
5:18  -  mph 1018.9mb 47f 52f
5:12  -  mph 1018.8mb 47f 52f
5:06  -  mph 1018.7mb 47f 52f
5:00  -  2 mph 1018.6mb 47f 52f
4:54  -  2 mph 1018.7mb 47f 52f
4:48 2
mph
1018.6mb 47f 52f
4:42  -  5 mph 1018.5mb 47f 51f
4:36 5
mph
1018.6mb 47f 51f
4:30 1 3 mph 1018.5mb 47f 51f
4:24  -  2 mph 1018.5mb 47f 51f
4:18  -  2 mph 1018.5mb 47f 51f
4:12  -  2 mph 1018.4mb 47f 52f
4:06  -  2 mph 1018.3mb 47f 52f
4:00 2 3 mph 1018.3mb 47f 53f
3:54 2 3 mph 1018.2mb 47f 53f
3:48 2
mph
1018.2mb 47f 53f
3:42 2 5 mph 1018.3mb 47f 53f
3:36 2 5 mph 1018.3mb 47f 53f
3:30  -  mph 1018.3mb - -
3:24  -  mph 1018.3mb - -
3:18  -  mph - 47f -
3:12 2 3 mph 1018.3mb 47f -
3:06 1 3 mph 1018.3mb 47f -
3:00 2 6 mph 1018.3mb 47f -
2:54 5 6 mph 1018.3mb 47f -
2:48 3 5 mph 1018.4mb - -
2:42 5 6 mph 1018.3mb - -
2:36 2 3 mph 1018.4mb - -
2:30 2 6 mph 1018.4mb 47f 55f
2:24 6 8 mph 1018.4mb 47f 55f
2:18 7 9 mph 1018.3mb 47f 55f
2:12 5 6 mph 1018.3mb 47f 56f
2:06  -  3 mph 1018.4mb 47f 55f
2:00  -  mph - - 56f
1:54  -  mph - - 55f
1:48 5 7 mph 1018.4mb 47f 54f
1:42 5 9 mph 1018.4mb 47f 55f
1:36 8 10 mph 1018.4mb 47f 55f
1:30 2
mph
1018.4mb 46f 57f
1:24 2 7 mph 1018.4mb 46f 57f
1:18 7 9 mph 1018.5mb 47f 56f
1:12 2 5 mph 1018.4mb 46f 58f
1:06 1 6 mph 1018.3mb 46f 58f
1:00 5 7 mph 1018.4mb 46f 57f
12:54 3 6 mph 1018.3mb 46f 59f
12:48 2 3 mph 1018.2mb 46f 58f
12:42 2 5 mph 1018.2mb 46f 57f
12:36 2 6 mph 1018.3mb 46f 56f
12:30 6 10 mph 1018.3mb 46f 56f
12:24 7 10 mph 1018.3mb 46f 59f
12:18 6 8 mph 1018.2mb 46f 61f
12:12 5 6 mph 1018.2mb 46f 63f
12:06 2 6 mph 1018.2mb 46f 62f
12:00 3 7 mph 1018.1mb 46f 64f
Di 05/26 11:54 1 3 mph 1017.9mb 46f 62f
11:48 2 6 mph 1017.9mb 46f 59f
11:42 5 9 mph 1018mb 46f 55f
11:36 8 11 mph 1018mb 46f 54f
11:30 6 8 mph 1017.9mb 46f 57f
11:24 5 8 mph 1017.9mb 46f 59f
11:18 6 10 mph 1017.9mb 46f 59f
11:12 2 9 mph 1017.8mb 46f 62f
11:06 6 7 mph 1017.8mb 46f 60f
11:00 6 9 mph 1017.8mb 46f 58f
10:54 5 8 mph 1017.7mb 46f 59f
10:48 6 16 mph 1017.7mb 46f 65f
10:42 9 17 mph 1017.5mb 46f 73f
10:36 10 21 mph 1017.4mb 46f 73f
10:30 11 17 mph 1017.3mb 46f 72f
10:24 14 21 mph 1017.2mb 46f 72f
10:18 13 22 mph 1017.3mb 46f 72f
10:12 15 25 mph 1017.1mb 46f 72f
10:06 14 24 mph 1017.1mb 46f 72f
10:00 14 20 mph 1017.1mb 46f 72f
9:54 15 20 mph 1017.1mb 46f 72f
9:48 14 21 mph 1017.1mb 46f 72f
9:42 14 17 mph 1017.1mb 46f 72f
9:36 13 22 mph 1017.1mb 46f 72f
9:30 11 20 mph 1017mb 46f 72f
9:24 14 20 mph 1016.9mb 46f 73f
9:18 13 22 mph 1016.9mb 46f 73f
9:12 16 23 mph 1016.9mb 46f 73f
9:06 14 20 mph 1016.8mb 46f 73f
9:00 13 20 mph 1016.8mb 47f 73f
8:54 13 22 mph 1016.8mb 46f 73f
8:48 10 17 mph 1016.8mb 46f 73f
8:42 14 18 mph 1016.7mb 46f 73f
8:36 14 20 mph 1016.7mb 46f 72f
8:30 15 22 mph 1016.7mb 46f 73f
8:24 14 18 mph 1016.8mb 45f 72f
8:18 14 22 mph 1016.8mb 46f 72f
8:12 11 17 mph 1016.7mb 46f 72f
8:06 14 21 mph 1016.8mb 46f 72f
8:00 13 21 mph 1016.8mb 46f 72f
7:54 14 24 mph 1016.8mb 46f 72f
7:48 15 23 mph 1016.8mb 46f 73f
7:42 13 20 mph 1016.8mb 46f 73f
7:36 13 20 mph 1016.7mb 47f 73f
7:30 13 18 mph 1016.7mb 47f 73f
7:24 10 17 mph 1016.8mb 47f 74f
7:18 11 20 mph 1016.7mb 47f 73f
7:12 11 16 mph 1016.8mb 46f 74f
7:06 11 21 mph 1016.8mb 46f 74f
7:00 10 18 mph 1016.8mb 47f 73f
6:54 11 15 mph 1016.8mb 46f 73f
6:48 14 21 mph 1016.8mb 46f 74f
6:42 11 18 mph 1016.8mb 46f 74f
6:36 13 20 mph 1016.8mb 46f 74f
6:30 13 22 mph 1016.8mb 46f 74f
6:24 11 22 mph 1016.9mb 46f 74f
6:18 10 20 mph 1016.8mb 46f 74f
6:12 11 22 mph 1016.8mb 46f 74f
6:06 15 21 mph 1016.6mb 46f 74f
6:00 11 18 mph 1016.6mb 46f 74f
5:54 13 20 mph 1016.6mb 46f 74f
5:48 14 25 mph 1016.6mb 45f 74f
5:42 14 20 mph 1016.6mb 45f 74f
5:36 13 20 mph 1016.4mb 45f 73f
5:30 14 21 mph 1016.5mb 45f 73f
5:24 14 22 mph 1016.4mb 45f 73f
5:18 14 21 mph 1016.4mb 46f 73f
5:12 15 21 mph 1016.4mb 46f 73f
5:06 13 21 mph 1016.4mb 46f 74f
5:00 14 23 mph 1016.3mb 46f 75f
4:54 16 23 mph 1016.2mb 46f 75f
4:48 14 23 mph 1016.2mb 46f 75f
4:42 11 17 mph 1016.1mb 46f 75f
4:36 17 25 mph 1016.1mb 46f 75f
4:30 15 25 mph 1016.1mb 46f 75f
4:24 18 24 mph 1016.2mb 46f 74f
4:18 16 22 mph 1016.1mb 46f 74f
4:12 11 22 mph 1016.3mb 46f 74f
4:06 13 21 mph 1016.3mb 46f 74f
4:00 14 23 mph 1016.3mb 46f 74f
3:54 11 25 mph 1016.4mb 46f 74f
3:48 15 23 mph 1016.3mb 46f 74f
3:42 13 20 mph 1016.4mb 46f 75f
3:36 15 21 mph 1016.4mb 46f 74f
3:30 17 23 mph 1016.3mb 46f 74f
3:24 16 22 mph 1016.3mb 46f 73f
3:18 9 15 mph 1016.5mb 46f 74f
3:12 8 17 mph 1016.5mb 46f 74f
3:06 11 20 mph 1016.4mb 46f 74f
3:00 10 16 mph 1016.5mb 46f 73f
2:54 15 22 mph 1016.5mb 46f 73f
2:48 7 16 mph 1016.5mb 46f 73f
2:42 11 22 mph 1016.7mb 46f 73f
2:36 14 21 mph 1016.6mb 46f 73f
2:30 15 26 mph 1016.6mb 46f 72f
2:24 17 23 mph 1016.5mb 46f 72f
2:18 16 23 mph 1016.6mb 46f 72f
2:12 15 24 mph 1016.7mb 46f 72f
2:06 14 23 mph 1016.7mb 46f 72f
2:00 10 16 mph 1016.8mb 46f 72f
1:54 8 21 mph 1016.9mb 46f 72f
1:48 14 22 mph 1017mb 46f 71f
1:30 13 18 mph 1016.9mb 46f 71f
1:24 16 23 mph 1016.8mb 46f 70f
1:18 11 23 mph 1016.9mb 46f 70f
1:12 9 22 mph 1017.2mb 46f 70f
1:06 14 22 mph 1017.2mb 46f 70f
1:00 10 17 mph 1017.3mb 46f 69f
12:54 13 25 mph 1017.1mb 46f 69f
12:48 9 17 mph 1016.8mb 45f 70f
12:42 9 15 mph 1016.7mb 45f 70f
12:36 5 13 mph 1016.7mb 45f 63f
12:30 3 9 mph 1016.8mb 45f 60f
12:24 6 8 mph 1016.8mb 45f 61f
12:18 3 14 mph 1017mb 45f 59f
12:12 6 10 mph 1017.2mb 45f 61f
12:06 3 10 mph 1017.2mb 45f 64f
12:00 6 10 mph 1017.2mb 45f 64f
11:54 3 13 mph 1017.5mb 45f 66f
11:48 6 10 mph 1017.8mb 45f 65f
11:42 8 11 mph 1017.8mb 45f 66f
11:36 8 14 mph 1018mb 45f 66f
11:30 6 9 mph 1017.8mb 45f 64f
11:24 3 9 mph 1017.8mb 45f 65f
11:18 3 11 mph 1017.9mb 45f 65f
11:12 6 22 mph 1017.6mb 45f 66f
11:06 8 21 mph 1017.4mb 45f 67f
11:00 9 22 mph 1017.4mb 45f 67f
10:54 13 20 mph 1017.6mb 45f 67f
10:48 14 22 mph 1017.5mb 45f 67f
10:42 9 17 mph 1017.4mb 45f 66f
10:36 16 25 mph 1017.5mb 45f 65f
10:30 16 23 mph 1017.4mb 45f 65f
10:24 13 24 mph 1017.5mb 45f 65f
10:18 18 25 mph 1017.6mb 45f 64f
10:12 16 30 mph 1017.7mb 45f 64f
10:06 16 24 mph 1017.6mb 45f 64f
10:00 16 29 mph 1017.5mb 45f 63f
9:54 18 29 mph 1017.8mb 45f 63f
9:48 18 29 mph 1017.6mb 45f 64f
9:42 16 23 mph 1017.6mb 45f 64f
9:36 15 29 mph 1017.5mb 45f 64f
9:30 18 28 mph 1017.4mb 45f 64f
9:24 13 25 mph 1017.6mb 45f 64f
9:18 18 26 mph 1017.7mb 45f 63f
9:12 21 29 mph 1017.6mb 45f 62f
9:06 16 25 mph 1017.8mb 45f 63f
9:00 14 30 mph 1017.9mb 45f 62f
8:54 18 24 mph 1017.9mb 45f 62f
8:48 14 26 mph 1017.9mb 45f 62f
8:42 13 22 mph 1018mb 45f 62f
8:36 15 25 mph 1018.2mb 45f 62f
8:30 14 25 mph 1018.2mb 45f 62f
8:24 15 24 mph 1018.1mb 45f 62f
8:18 14 23 mph 1018.1mb 45f 62f
8:12 15 23 mph 1018.1mb 45f 62f
8:06 15 23 mph 1018.1mb 45f 61f
8:00 16 25 mph 1018.1mb 45f 61f
7:54 18 31 mph 1018mb 45f 60f
7:48 20 30 mph 1017.8mb 45f 60f
7:42 20 28 mph 1017.8mb 45f 60f
7:36 17 30 mph 1018mb 45f 61f
7:30 16 25 mph 1018mb 45f 61f
7:24 13 21 mph 1017.8mb 45f 60f
7:18 16 26 mph 1017.7mb 45f 60f
7:12 16 29 mph 1017.8mb 45f 60f
7:06 16 25 mph 1017.7mb 45f 60f
7:00 17 24 mph 1017.6mb 45f 60f
6:54 15 21 mph 1017.5mb 45f 60f
6:48 11 17 mph 1017.5mb 45f 63f
6:42 13 16 mph 1017.3mb 45f 64f
6:36 13 18 mph 1017.3mb 45f 64f
6:30 14 18 mph 1017.4mb 45f 62f
6:24 13 25 mph 1017.8mb 45f 61f
6:18 13 18 mph 1018mb 45f 62f
6:12 7 11 mph 1017.8mb 45f 62f
6:06 5 13 mph 1018mb 45f 61f
6:00 6 15 mph 1018.2mb 46f 60f
5:54 10 18 mph 1018.3mb 46f 60f
5:48 9 16 mph 1018.4mb 46f 60f
5:42 9 17 mph 1018.5mb 46f 60f
5:36 6 17 mph 1018.5mb 46f 60f
5:30 10 17 mph 1018.5mb 45f 60f
5:24 9 14 mph 1018.5mb 45f 60f
5:18 9 15 mph 1018.5mb 45f 59f
5:12 10 16 mph 1018.5mb 45f 60f
5:06 8 16 mph 1018.6mb 44f 60f
5:00 3 9 mph 1018.6mb 44f 58f
4:54 6 14 mph 1018.5mb 44f 60f
4:48 7 11 mph 1018.5mb 44f 60f
4:42 7 16 mph 1018.4mb 44f 60f
4:36 8 15 mph 1018.4mb 44f 60f
4:30 7 15 mph 1018.4mb 44f 60f
4:24 9 15 mph 1018.4mb 44f 60f
4:18 5 14 mph 1018.5mb 44f 60f
4:12 9 15 mph 1018.4mb 44f 60f
4:06 6 11 mph 1018.3mb 44f 60f
4:00 9 16 mph 1018.3mb 44f 60f
3:54 8 15 mph 1018.3mb 44f 59f
3:48 7 21 mph 1018.5mb 44f 59f
3:42 10 20 mph 1018.6mb 44f 60f
3:36 11 21 mph 1018.6mb 44f 60f
3:30 10 22 mph 1018.5mb 44f 60f
3:24 14 20 mph 1018.5mb 44f 60f
3:18 13 20 mph 1018.5mb 44f 60f
3:12 14 24 mph 1018.5mb 44f 60f
3:06 11 17 mph 1018.5mb 44f 60f
3:00 14 22 mph 1018.5mb 44f 60f
2:54 11 21 mph 1018.5mb 44f 60f
2:48 13 18 mph - 44f 60f
2:42 14 20 mph - 44f 60f
2:30 11 17 mph 1018.7mb 45f 61f
2:24 7 16 mph 1018.8mb 44f 60f
2:18 9 16 mph 1018.8mb 44f 60f
2:12 7 13 mph 1018.9mb 44f 61f
2:06 9 16 mph 1018.8mb 44f 61f
2:00 7 15 mph 1019mb 44f 61f
1:54 9 14 mph 1018.9mb 44f 61f
1:48 10 14 mph 1018.9mb 44f 60f
1:42 8 15 mph 1019.1mb 45f 60f
1:36 5 9 mph 1019.4mb 45f 55f
1:30 5 11 mph 1019.7mb 45f 55f
1:24 6 9 mph 1019.7mb 45f 54f
1:18 6 9 mph 1019.8mb 44f 55f
1:12 5 7 mph 1019.9mb 44f 55f
1:06 7 10 mph 1020mb 45f 55f
1:00 6 17 mph 1019.9mb 45f 61f
12:54 9 17 mph 1019.8mb 45f 61f
12:48 11 18 mph 1019.9mb 45f 61f
12:42 10 21 mph 1019.8mb 45f 62f
12:36 14 21 mph 1019.8mb 45f 62f
12:30 13 21 mph 1019.8mb 45f 63f
12:24 13 22 mph 1019.7mb 45f 63f
12:18 15 24 mph 1019.9mb 45f 64f
12:12 13 20 mph 1019.9mb 45f 64f
12:06 18 24 mph 1019.9mb 45f 65f
12:00 15 24 mph 1020mb 45f 65f
Mo 05/25 11:54 15 21 mph 1020mb 44f 66f
11:48 13 21 mph 1020mb 44f 66f
11:42 13 22 mph 1020.1mb 44f 66f
11:36 15 22 mph 1020.2mb 44f 65f
11:30 11 20 mph 1020.2mb 44f 65f
11:24 11 17 mph 1020.3mb 45f 66f
11:18 10 20 mph 1020.4mb 45f 66f
11:12 9 17 mph 1020.4mb 45f 66f
11:06 11 18 mph 1020.4mb 45f 66f
11:00 10 16 mph 1020.5mb 45f 66f
10:54 11 17 mph 1020.6mb 45f 67f
10:48 14 18 mph 1020.6mb 45f 67f
10:42 9 16 mph 1020.6mb 45f 67f
10:36 10 18 mph 1020.6mb 45f 67f
10:30 11 16 mph 1020.6mb 45f 67f
10:24 11 16 mph 1020.6mb 45f 68f
10:18 11 21 mph 1020.6mb 45f 68f
10:12 15 21 mph 1020.6mb 45f 69f
10:06 14 18 mph 1020.6mb 45f 69f
10:00 11 18 mph 1020.7mb 46f 69f
9:54 15 23 mph 1020.7mb 46f 69f
9:48 11 17 mph 1020.7mb 46f 69f
9:42 10 16 mph 1020.7mb 46f 70f
9:36 8 15 mph 1020.7mb 46f 70f
9:30 10 16 mph 1020.7mb 46f 70f
9:24 7 11 mph 1020.6mb 46f 70f
9:18 9 15 mph 1020.7mb 46f 70f
9:12 10 16 mph 1020.7mb 46f 71f
9:06 9 15 mph 1020.7mb 46f 71f
9:00 11 15 mph 1020.6mb 47f 71f
8:54 11 16 mph 1020.6mb 46f 71f
8:48 10 18 mph 1020.6mb 46f 71f
8:42 11 17 mph 1020.5mb 46f 71f
8:36 10 17 mph 1020.4mb 46f 71f
8:30 11 17 mph 1020.3mb 46f 72f
8:24 14 20 mph 1020.2mb 46f 72f
8:18 9 15 mph 1020.1mb 46f 72f
8:12 8 14 mph 1020mb 46f 71f
8:06 11 20 mph 1019.9mb 46f 71f
8:00 10 17 mph 1019.8mb 46f 71f
7:54 11 18 mph 1019.8mb 46f 71f
7:48 10 18 mph 1019.8mb 46f 70f
7:42 8 16 mph 1019.8mb 46f 71f
7:36 14 20 mph 1019.8mb 46f 71f
7:30 11 16 mph 1019.7mb 46f 71f
7:24 14 18 mph 1019.7mb 46f 70f
7:18 13 20 mph 1019.7mb 46f 70f
7:12 14 20 mph 1019.7mb 46f 71f
7:06 13 17 mph 1019.7mb 46f 71f
7:00 14 23 mph 1019.6mb 46f 72f
6:54 14 20 mph 1019.6mb 46f 72f
6:48 11 15 mph 1019.7mb 47f 72f
6:42 9 16 mph 1019.7mb 47f 73f
6:36 7 11 mph 1019.7mb 47f 74f
6:30 7 10 mph 1019.7mb 47f 73f
6:24 8 17 mph 1019.7mb 47f 72f
6:18 14 22 mph 1019.8mb 47f 72f
6:12 9 20 mph 1019.9mb 47f 72f
6:06 14 21 mph 1019.8mb 47f 73f
6:00 10 20 mph 1019.7mb 47f 73f
5:54 13 18 mph 1019.6mb 47f 73f
5:48 9 16 mph 1019.6mb 46f 74f
5:42 13 18 mph 1019.6mb 46f 74f
5:36 10 20 mph 1019.6mb 46f 74f
5:30 10 16 mph 1019.6mb 46f 74f
5:24 9 15 mph 1019.5mb 46f 74f
5:18 9 14 mph 1019.6mb 46f 74f
5:12 10 14 mph 1019.6mb 46f 74f
5:06 10 15 mph 1019.6mb 46f 75f
5:00 9 15 mph 1019.7mb 46f 75f
4:54 9 16 mph 1019.7mb 46f 75f
4:48 8 13 mph 1019.6mb 46f 75f
4:42 10 16 mph 1019.7mb 46f 74f
4:36 8 11 mph 1019.7mb 46f 75f
4:30 8 11 mph 1019.7mb 46f 75f
4:24 10 17 mph 1019.7mb 46f 75f
4:18 10 15 mph 1019.7mb 46f 76f
4:12 11 18 mph 1019.6mb 46f 76f
4:06 11 15 mph 1019.6mb 46f 76f
4:00 10 15 mph 1019.5mb 46f 76f
3:54 8 15 mph 1019.6mb 46f 77f
3:48 9 13 mph 1019.6mb 46f 76f
3:42 10 15 mph 1019.6mb 46f 76f
3:36 11 16 mph 1019.5mb 46f 76f
3:30 10 16 mph 1019.6mb 46f 76f
3:24 9 14 mph 1019.6mb 46f 76f
3:18 6 10 mph 1019.6mb 46f 74f
3:12 5 9 mph 1019.6mb 46f 66f
3:06 3 7 mph 1019.6mb 46f 65f
3:00 3 9 mph 1019.7mb 46f 72f
2:54 8 14 mph 1019.7mb 46f 77f
2:48 8 14 mph 1019.6mb 46f 77f
2:42 9 17 mph 1019.6mb 46f 77f
2:36 11 15 mph 1019.7mb 46f 77f
2:30 11 15 mph 1019.6mb 46f 77f
2:24 10 15 mph 1019.7mb 46f 77f
2:18 9 14 mph 1019.7mb 46f 77f
2:12 8 15 mph 1019.6mb 46f 78f
2:06 10 16 mph 1019.6mb 46f 78f
2:00 7 14 mph 1019.6mb 46f 78f
1:54 10 18 mph 1019.6mb 46f 77f
1:48 8 14 mph 1019.6mb 46f 78f
1:42 2 6 mph 1019.6mb 46f 71f
1:36 3 7 mph 1019.7mb 46f -
1:30 2 7 mph 1019.7mb 46f -
1:24 6 7 mph 1019.8mb 47f -
1:18 6 9 mph 1019.8mb 46f -
1:12 5 10 mph 1019.9mb 46f -
1:06 11 14 mph 1019.9mb 46f 79f
1:00 10 15 mph 1019.9mb 46f 79f
12:54 6 14 mph 1020mb 46f 79f
12:48 8 14 mph 1020mb 46f 78f
12:42 7 16 mph 1020.1mb 46f 78f
12:36 6 13 mph 1020.2mb 46f 79f
12:30 9 14 mph 1020.2mb 46f 78f
12:24 11 15 mph 1020.3mb 46f 78f
12:18 11 17 mph 1020.4mb 46f 77f
12:12 10 16 mph 1020.5mb 46f 77f
12:06 8 16 mph 1020.5mb 46f 77f
12:00 7 14 mph 1020.5mb 46f 77f
11:54 8 14 mph 1020.6mb 46f 76f
11:48 10 16 mph 1020.7mb 46f 76f
11:42 11 15 mph 1020.7mb 46f 76f
11:36 7 14 mph 1020.7mb 46f 76f
11:30 8 14 mph 1020.7mb 46f 76f
11:24 9 14 mph 1020.7mb 46f 76f
11:18 6 11 mph 1020.7mb 46f 76f
11:12 8 15 mph 1020.6mb 46f 76f
11:06 9 17 mph 1020.7mb 46f 75f
11:00 11 16 mph 1020.7mb 46f 75f
10:54 8 16 mph 1020.8mb 46f 75f
10:48 11 16 mph 1020.9mb 46f 75f
10:42 9 16 mph 1020.8mb 46f 75f
10:36 9 16 mph 1020.8mb 46f 75f
10:30 11 16 mph 1020.8mb 46f 75f
10:24 11 16 mph 1020.7mb 46f -
10:18 10 15 mph 1020.7mb 46f -
10:12 10 17 mph 1020.7mb 46f -
10:06 13 17 mph 1020.7mb 46f -
10:00 11 18 mph 1020.7mb 46f -
9:54 8 15 mph 1020.7mb 46f -
9:48 13 15 mph 1020.7mb 46f -
9:42 10 15 mph 1020.8mb 46f -
9:36 9 15 mph 1020.8mb 46f -
9:30 8 15 mph 1020.7mb 46f -
9:24 13 18 mph 1020.7mb 46f -
9:18 7 14 mph 1020.8mb 46f -
9:12 7 13 mph 1020.8mb 46f -
9:06 1 5 mph 1020.8mb 46f 64f
9:00 2 6 mph 1020.8mb 46f 61f
8:54 5 6 mph 1020.8mb 46f 58f
8:48 5 6 mph 1020.9mb 46f 57f
8:42 5 6 mph 1020.9mb 46f 58f
8:36 3 5 mph 1020.8mb 46f 59f
8:30 3
mph
1020.8mb 46f 56f
8:24 3 6 mph 1020.8mb 46f 56f
8:18 5 7 mph 1020.8mb 46f 56f
8:12 6 8 mph 1020.8mb 46f 57f
8:06 6 7 mph 1020.7mb 46f 59f
8:00 6 9 mph 1020.7mb 46f 58f
7:54 8 9 mph 1020.7mb 46f 56f
7:48 5 8 mph 1020.7mb 46f 62f
7:42 3 8 mph 1020.7mb 46f 66f
7:36 3 7 mph 1020.7mb 46f 68f
7:30 3 9 mph 1020.6mb 46f 64f
7:24 7 10 mph 1020.6mb 46f 72f
7:18 7 15 mph 1020.5mb 46f 71f
7:12 10 15 mph 1020.5mb 46f 71f
7:06 9 17 mph 1020.4mb 46f 70f
7:00 11 15 mph 1020.3mb 46f 70f
6:54 10 14 mph 1020.2mb 46f 70f
6:48 11 16 mph 1020.2mb 46f 70f
6:42 11 16 mph 1020.2mb 46f 69f
6:36 8 18 mph 1020.2mb 46f 69f
6:30 10 16 mph 1020.1mb 46f 69f
6:24 10 20 mph 1020.1mb 46f 69f
6:18 10 17 mph 1020.2mb 46f 68f
6:12 9 17 mph 1020.1mb 46f 68f
6:06 11 17 mph 1020.2mb 46f 68f
6:00 13 18 mph 1020.2mb 46f 68f
5:54 11 16 mph 1020.2mb 46f 68f
5:48 9 14 mph 1020.2mb 46f 68f
5:42 10 17 mph 1020.1mb 46f 68f
5:36 10 14 mph 1020mb 46f 68f
5:30 10 16 mph 1020mb 46f 69f
5:24 9 14 mph 1019.8mb 46f 68f
5:18 11 15 mph 1019.7mb 46f 68f
5:12 11 20 mph 1019.6mb 46f 68f
5:06 11 15 mph 1019.6mb 46f 68f
5:00 10 16 mph 1019.6mb 46f 67f
4:54 11 18 mph 1019.5mb 46f 68f
4:48 11 16 mph 1019.6mb 46f 67f
4:42 11 16 mph 1019.5mb 46f 67f
4:36 11 17 mph 1019.6mb 46f 67f
4:30 11 18 mph 1019.6mb 46f 67f
4:24 11 17 mph 1019.6mb 45f 67f
4:18 11 16 mph 1019.5mb 45f 67f
4:12 10 16 mph 1019.5mb 45f 67f
4:06 10 16 mph 1019.5mb 45f 67f
4:00 10 14 mph 1019.6mb 45f 67f
3:54 8 13 mph 1019.7mb 45f 67f
3:48 8 13 mph 1019.7mb 45f 67f
3:42 6 8 mph 1019.6mb 45f 62f
3:36 5 8 mph 1019.6mb 45f 62f
3:30 3 5 mph 1019.6mb 45f 59f
3:24 2 3 mph 1019.4mb 45f 57f
3:18 2 3 mph 1019.4mb 45f 57f
3:12 1 3 mph 1019.4mb 45f 56f
3:06 3 5 mph 1019.5mb 45f 54f
3:00 3 6 mph 1019.5mb 45f 54f
2:54 2 5 mph 1019.5mb 45f 55f
2:48 1
mph
- 45f 54f
2:42  -  1 mph - 45f 54f
2:36  -  2 mph - 45f 53f
2:30  -  2 mph 1019.4mb 45f 52f
2:24  -  2 mph 1019.4mb 45f 52f
2:18 2 3 mph 1019.5mb 45f 52f
2:12 2 7 mph 1019.5mb 45f 52f
2:06 6 7 mph 1019.6mb 45f 51f
2:00 6 8 mph 1019.5mb 45f 51f
1:54 2 5 mph 1019.5mb 45f 51f
1:48 1 2 mph 1019.6mb 45f 51f
1:42  -  mph 1019.5mb 45f 50f
1:36 1 3 mph 1019.5mb 45f 50f
1:30 2 5 mph 1019.4mb 45f 50f
1:24 1 5 mph 1019.5mb 45f 51f
1:18 3 5 mph 1019.5mb 45f 52f
1:12 3 6 mph 1019.4mb 45f 54f
1:06 6
mph
1019.4mb 45f 52f
1:00 7 11 mph 1019.4mb 45f 59f
12:54 2 3 mph 1019.4mb 45f 61f
12:48 2 3 mph 1019.3mb 45f 61f
12:42 2 3 mph 1019.3mb 45f 60f
12:36 2
mph
1019.4mb 45f 64f
12:30  -  2 mph 1019.4mb 45f 63f
12:24  -  3 mph 1019.4mb 45f 64f
12:18 5 9 mph 1019.5mb 45f 65f
12:12 7 9 mph 1019.6mb 45f 65f
12:06 6 8 mph 1019.7mb 45f 65f
12:00 6 7 mph 1019.7mb 45f 65f
So 05/24 11:54 5 6 mph 1019.7mb 45f 64f
11:48 5 7 mph 1019.6mb 45f 64f
11:42 6 7 mph 1019.6mb 45f 64f
11:36 3 9 mph 1019.6mb 45f 64f
11:30 9 11 mph 1019.5mb 45f 64f
11:24 7 16 mph 1019.7mb 45f 63f
11:18 11 16 mph 1019.5mb 45f 63f
11:12 9 14 mph 1019.8mb 45f 64f
11:06 13 15 mph 1019.7mb 45f 65f
11:00 9 17 mph 1019.6mb 45f 63f
10:54 18 33 mph 1019.8mb 45f 60f
10:48 16 25 mph 1019.3mb 45f 68f
10:42 16 24 mph 1018.4mb 45f 68f
10:36 15 21 mph 1018.3mb 45f 68f
10:30 15 22 mph 1018.2mb 45f 69f
10:24 14 23 mph 1018.2mb 45f 69f
10:18 14 20 mph 1018mb 45f 69f
10:12 14 21 mph 1017.9mb 45f 70f
10:06 13 18 mph 1017.9mb 45f 70f
10:00 11 17 mph 1017.9mb 45f 70f
9:54 9 15 mph 1017.9mb 45f 71f
9:48 11 16 mph 1017.8mb 45f 71f
9:42 10 16 mph 1017.8mb 45f 71f
9:36 11 16 mph 1017.7mb 45f 72f
9:30 10 16 mph 1017.7mb 45f 71f
9:24 10 14 mph 1017.6mb 45f 71f
9:18 9 14 mph 1017.6mb 45f 72f
9:12 10 15 mph 1017.5mb 46f 72f
9:06 9 14 mph 1017.4mb 46f 72f
9:00 8 15 mph 1017.4mb 46f 72f
8:54 10 16 mph 1017.5mb 45f 71f
8:48 8 14 mph 1017.3mb 46f 71f
8:42 9 15 mph 1017.3mb 46f 71f
8:36 11 16 mph 1017.2mb 46f 71f
8:30 9 14 mph 1017.1mb 46f 71f
8:24 9 15 mph 1017.1mb 46f 71f
8:18 9 15 mph 1017.1mb 46f 71f
8:12 11 17 mph 1017.1mb 46f 71f
8:06 11 16 mph 1017mb 46f 71f
8:00 11 15 mph 1017mb 45f 71f
7:54 10 15 mph 1016.9mb 46f 71f
7:48 10 14 mph 1016.8mb 45f 71f
7:42 10 17 mph 1016.7mb 46f 71f
7:36 13 17 mph 1016.7mb 46f 71f
7:30 10 15 mph 1016.7mb 45f 71f
7:24 9 18 mph 1016.7mb 45f 71f
7:18 10 18 mph 1016.6mb 45f 71f
7:12 11 15 mph 1016.6mb 45f 71f
7:06 13 17 mph 1016.6mb 45f 71f
7:00 10 18 mph 1016.6mb 45f 71f
6:54 11 16 mph 1016.7mb 45f 72f
6:48 11 17 mph 1016.7mb 45f 72f
6:42 11 16 mph 1016.6mb 46f 72f
6:36 7 15 mph 1016.6mb 46f 73f
6:30 10 14 mph 1016.6mb 47f 73f
6:24 9 14 mph 1016.6mb 46f 74f
6:18 9 16 mph 1016.6mb 46f 74f
6:12 11 18 mph 1016.6mb 47f 73f
6:06 10 15 mph 1016.6mb 47f 73f
6:00 8 14 mph 1016.6mb 47f 73f
5:54 11 18 mph 1016.6mb 47f 73f
5:48 9 16 mph 1016.6mb 45f 73f
5:42 9 18 mph 1016.6mb 46f 74f
5:36 10 20 mph 1016.6mb 46f 74f
5:30 11 16 mph 1016.6mb 45f 73f
5:24 9 16 mph 1016.6mb 45f 74f
5:18 11 18 mph 1016.6mb 45f 73f
5:12 10 15 mph 1016.6mb 45f 73f
5:06 15 21 mph 1016.6mb 45f 73f
5:00 11 22 mph 1016.6mb 45f 73f
4:54 11 21 mph 1016.7mb 45f 74f
4:48 16 21 mph 1016.7mb 45f 73f
4:42 16 23 mph 1016.7mb 45f 73f
4:36 13 22 mph 1016.8mb 45f 73f
4:30 15 21 mph 1016.7mb 45f 74f
4:24 13 20 mph 1016.7mb 45f 74f
4:18 13 18 mph 1016.6mb 46f 74f
4:12 13 23 mph 1016.6mb 45f 74f
4:06 13 23 mph 1016.6mb 45f 74f
4:00 15 29 mph 1016.5mb 45f 74f
3:54 10 25 mph 1016.6mb 45f 74f
3:48 14 24 mph 1016.5mb 45f 73f
3:42 15 24 mph 1016.8mb 45f 73f
3:36 15 22 mph 1016.7mb 45f 73f